Terminal Aerodrome Forecast
Issued by NWS

Home | Current Version | Previous Version | Text Only | Print | Product List | Glossary Off
Versions: 1 2 3 4 5 6 7 8 9 10 11 12 13 14 15 16 17 18 19 20 21 22 23

000
FTUS43 KABR 292000 AAA
TAFPIR
TAF AMD
KPIR 292037Z 2921/3018 35016G23KT P6SM VCSH SCT050 BKN100
     FM292200 36014G20KT P6SM SCT060
     FM300000 03007KT P6SM SKC
     FM300800 07006KT 2SM BR SKC
     FM301500 13009KT P6SM SCT050=

USA.gov is the U.S. government's official web portal to all federal, state and local government web resources and services.